DEMAR EDHL-EDDH

Flight info

Callsign DEMAR
Flight time 0h 37m
Altitude 6000
Route HAM2A HAM VFR
Aircraft BT36/L-BDFGLORY/S

Departure

Time 2026-04-20 16:30
Airport Lübeck Blankensee Airport (EDHL)

Arrival

Time 2026-04-20 17:07
Airport Hamburg Helmut Schmidt Airport (EDDH)
Time Latitude Longitude Altitude Speed Heading
2026-04-20 16:26 53.80566 10.70496 53 ft 0 kts 252°
2026-04-20 16:28 53.80572 10.70476 53 ft 9 kts 317°
2026-04-20 16:28 53.80567 10.70347 53 ft 12 kts 214°
2026-04-20 16:28 53.80455 10.70450 52 ft 19 kts 102°
2026-04-20 16:28 53.80503 10.70736 53 ft 29 kts 72°
2026-04-20 16:29 53.80571 10.71095 57 ft 33 kts 70°
2026-04-20 16:29 53.80651 10.71478 55 ft 32 kts 70°
2026-04-20 16:29 53.80619 10.71814 57 ft 23 kts 119°
2026-04-20 16:29 53.80558 10.72012 53 ft 18 kts 169°
2026-04-20 16:30 53.80521 10.71873 55 ft 49 kts 257°
2026-04-20 16:30 53.80309 10.70791 127 ft 129 kts 256°
2026-04-20 16:30 53.79767 10.69403 430 ft 157 kts 211°
2026-04-20 16:30 53.78718 10.69116 792 ft 156 kts 154°
2026-04-20 16:31 53.78050 10.70266 1215 ft 133 kts 94°
2026-04-20 16:31 53.78315 10.71667 1628 ft 132 kts 46°
2026-04-20 16:31 53.79134 10.72451 2043 ft 137 kts 35°
2026-04-20 16:31 53.79950 10.73288 2466 ft 136 kts 43°
2026-04-20 16:32 53.80643 10.74376 2870 ft 135 kts 52°
2026-04-20 16:32 53.81162 10.75684 3256 ft 134 kts 66°
2026-04-20 16:32 53.81507 10.77173 3645 ft 135 kts 69°
2026-04-20 16:32 53.81823 10.78699 4029 ft 138 kts 70°
2026-04-20 16:33 53.82126 10.80247 4422 ft 139 kts 71°
2026-04-20 16:33 53.82427 10.81814 4817 ft 140 kts 70°
2026-04-20 16:33 53.82723 10.83365 5167 ft 139 kts 71°
2026-04-20 16:33 53.82988 10.84777 5171 ft 115 kts 70°
2026-04-20 16:34 53.83229 10.86021 5175 ft 110 kts 71°
2026-04-20 16:34 53.83218 10.87276 5182 ft 112 kts 106°
2026-04-20 16:34 53.82617 10.88196 5176 ft 129 kts 155°
2026-04-20 16:34 53.81698 10.88341 5181 ft 134 kts 166°
2026-04-20 16:35 53.80767 10.88478 5181 ft 134 kts 166°
2026-04-20 16:35 53.79835 10.88619 5184 ft 135 kts 165°
2026-04-20 16:35 53.78899 10.88754 5183 ft 134 kts 167°
2026-04-20 16:35 53.77971 10.88893 5182 ft 134 kts 167°
2026-04-20 16:36 53.77056 10.89032 5182 ft 134 kts 165°
2026-04-20 16:36 53.76137 10.88701 5177 ft 143 kts 214°
2026-04-20 16:36 53.75632 10.87268 5173 ft 146 kts 264°
2026-04-20 16:36 53.75480 10.85587 5191 ft 145 kts 261°
2026-04-20 16:37 53.75279 10.83890 5195 ft 149 kts 263°
2026-04-20 16:37 53.75114 10.82182 5187 ft 149 kts 262°
2026-04-20 16:37 53.74937 10.80454 5204 ft 147 kts 262°
2026-04-20 16:37 53.74767 10.78775 5196 ft 144 kts 262°
2026-04-20 16:38 53.74586 10.77098 5192 ft 145 kts 263°
2026-04-20 16:38 53.74419 10.75428 5189 ft 144 kts 262°
2026-04-20 16:38 53.74245 10.73776 5191 ft 141 kts 261°
2026-04-20 16:38 53.74073 10.72148 5191 ft 140 kts 262°
2026-04-20 16:39 53.73904 10.70532 5190 ft 139 kts 262°
2026-04-20 16:39 53.73735 10.68916 5189 ft 139 kts 262°
2026-04-20 16:39 53.73545 10.67124 5201 ft 175 kts 261°
2026-04-20 16:39 53.73328 10.64956 5201 ft 197 kts 261°
2026-04-20 16:40 53.73086 10.62646 5196 ft 206 kts 260°
2026-04-20 16:40 53.72839 10.60333 5193 ft 191 kts 261°
2026-04-20 16:40 53.72608 10.58183 5191 ft 182 kts 261°
2026-04-20 16:40 53.72387 10.56068 5180 ft 183 kts 262°
2026-04-20 16:41 53.72161 10.53946 5176 ft 184 kts 262°
2026-04-20 16:41 53.71934 10.51826 5175 ft 184 kts 262°
2026-04-20 16:41 53.71706 10.49716 5174 ft 181 kts 262°
2026-04-20 16:41 53.71485 10.47627 5175 ft 179 kts 261°
2026-04-20 16:42 53.71263 10.45574 5175 ft 177 kts 260°
2026-04-20 16:42 53.71047 10.43501 5174 ft 181 kts 261°
2026-04-20 16:42 53.70820 10.41389 5173 ft 182 kts 260°
2026-04-20 16:42 53.70595 10.39305 5174 ft 179 kts 261°
2026-04-20 16:43 53.70371 10.37220 5173 ft 181 kts 261°
2026-04-20 16:43 53.70148 10.35140 5172 ft 179 kts 261°
2026-04-20 16:43 53.69927 10.33099 5167 ft 178 kts 261°
2026-04-20 16:43 53.69703 10.31032 5152 ft 182 kts 261°
2026-04-20 16:44 53.69477 10.28927 5152 ft 183 kts 261°
2026-04-20 16:44 53.69249 10.26833 5156 ft 180 kts 260°
2026-04-20 16:44 53.69023 10.24763 5155 ft 181 kts 261°
2026-04-20 16:44 53.68799 10.22667 5157 ft 181 kts 261°
2026-04-20 16:45 53.68506 10.20588 5147 ft 184 kts 244°
2026-04-20 16:45 53.67710 10.18947 5153 ft 182 kts 221°
2026-04-20 16:45 53.66841 10.17400 5157 ft 180 kts 224°
2026-04-20 16:45 53.65994 10.15859 5157 ft 179 kts 224°
2026-04-20 16:46 53.65145 10.14315 5158 ft 180 kts 223°
2026-04-20 16:46 53.64289 10.12783 5160 ft 179 kts 224°
2026-04-20 16:46 53.63446 10.11262 5162 ft 177 kts 224°
2026-04-20 16:46 53.62610 10.09750 5161 ft 176 kts 224°
2026-04-20 16:47 53.61777 10.08242 5160 ft 178 kts 224°
2026-04-20 16:47 53.60925 10.06706 5159 ft 180 kts 222°
2026-04-20 16:47 53.60070 10.05177 5161 ft 178 kts 224°
2026-04-20 16:47 53.59225 10.03643 5159 ft 180 kts 223°
2026-04-20 16:48 53.58362 10.02099 5159 ft 181 kts 223°
2026-04-20 16:48 53.57503 10.00564 5170 ft 179 kts 225°
2026-04-20 16:48 53.56644 9.99020 5166 ft 181 kts 224°
2026-04-20 16:48 53.55794 9.97493 5168 ft 178 kts 225°
2026-04-20 16:49 53.54942 9.95963 5166 ft 180 kts 225°
2026-04-20 16:49 53.54079 9.94425 5018 ft 180 kts 225°
2026-04-20 16:49 53.53285 9.92995 4493 ft 162 kts 225°
2026-04-20 16:49 53.52528 9.91643 3966 ft 157 kts 224°
2026-04-20 16:50 53.51783 9.90320 3449 ft 156 kts 223°
2026-04-20 16:50 53.51053 9.89011 3156 ft 146 kts 223°
2026-04-20 16:50 53.50393 9.87834 3148 ft 133 kts 223°
2026-04-20 16:50 53.49769 9.86721 3147 ft 130 kts 223°
2026-04-20 16:51 53.49148 9.85611 3149 ft 131 kts 222°
2026-04-20 16:51 53.48497 9.84459 3171 ft 156 kts 223°
2026-04-20 16:51 53.47633 9.82941 3184 ft 196 kts 225°
2026-04-20 16:51 53.46667 9.81187 3177 ft 210 kts 224°
2026-04-20 16:52 53.45791 9.79221 3166 ft 208 kts 249°
2026-04-20 16:52 53.45794 9.77079 3145 ft 166 kts 302°
2026-04-20 16:52 53.46481 9.75506 3160 ft 180 kts 315°
2026-04-20 16:52 53.47298 9.73812 3168 ft 189 kts 316°
2026-04-20 16:53 53.48214 9.72263 3163 ft 182 kts 339°
2026-04-20 16:53 53.49372 9.72084 3162 ft 164 kts 25°
2026-04-20 16:53 53.50233 9.73231 3167 ft 158 kts 49°
2026-04-20 16:53 53.50977 9.74562 3168 ft 158 kts 51°
2026-04-20 16:54 53.51696 9.75960 3171 ft 158 kts 52°
2026-04-20 16:54 53.52409 9.77369 3090 ft 160 kts 52°
2026-04-20 16:54 53.53069 9.78709 2890 ft 129 kts 51°
2026-04-20 16:54 53.53519 9.79602 2737 ft 79 kts 53°
2026-04-20 16:55 53.53841 9.80252 2640 ft 70 kts 53°
2026-04-20 16:55 53.54150 9.80877 2551 ft 69 kts 53°
2026-04-20 16:55 53.54458 9.81501 2458 ft 69 kts 52°
2026-04-20 16:55 53.54765 9.82118 2365 ft 69 kts 52°
2026-04-20 16:56 53.55073 9.82741 2270 ft 70 kts 50°
2026-04-20 16:56 53.55383 9.83367 2179 ft 69 kts 48°
2026-04-20 16:56 53.55696 9.84006 2082 ft 72 kts 49°
2026-04-20 16:56 53.56038 9.84694 1980 ft 80 kts 49°
2026-04-20 16:57 53.56382 9.85415 1909 ft 79 kts 50°
2026-04-20 16:57 53.56722 9.86131 1871 ft 77 kts 51°
2026-04-20 16:57 53.57067 9.86819 1807 ft 77 kts 49°
2026-04-20 16:57 53.57402 9.87509 1753 ft 77 kts 50°
2026-04-20 16:58 53.57738 9.88217 1713 ft 79 kts 50°
2026-04-20 16:58 53.58089 9.88940 1649 ft 81 kts 46°
2026-04-20 16:58 53.58478 9.89622 1556 ft 81 kts 44°
2026-04-20 16:58 53.58850 9.90299 1410 ft 77 kts 49°
2026-04-20 16:59 53.59194 9.91041 1240 ft 87 kts 55°
2026-04-20 16:59 53.59575 9.91850 1115 ft 89 kts 50°
2026-04-20 16:59 53.59948 9.92671 999 ft 88 kts 51°
2026-04-20 16:59 53.60365 9.93495 825 ft 96 kts 48°
2026-04-20 17:00 53.61243 9.95128 462 ft 90 kts 43°
2026-04-20 17:00 53.61657 9.95954 162 ft 96 kts 51°
2026-04-20 17:00 53.61988 9.96700 61 ft 63 kts 49°
2026-04-20 17:01 53.62247 9.97226 34 ft 57 kts 49°
2026-04-20 17:01 53.62550 9.97860 130 ft 86 kts 51°
2026-04-20 17:01 53.62959 9.98686 417 ft 106 kts 49°
2026-04-20 17:01 53.63505 9.99781 833 ft 114 kts 54°
2026-04-20 17:02 53.63991 10.00905 1362 ft 116 kts 54°
2026-04-20 17:02 53.64347 10.02076 1786 ft 120 kts 91°
2026-04-20 17:02 53.63602 10.02997 1931 ft 161 kts 150°
2026-04-20 17:02 53.62564 10.03720 2093 ft 159 kts 143°
2026-04-20 17:03 53.61619 10.04590 2366 ft 155 kts 150°
2026-04-20 17:03 53.60720 10.03654 2783 ft 175 kts 236°
2026-04-20 17:03 53.60013 10.01827 2648 ft 193 kts 236°
2026-04-20 17:03 53.59286 10.00043 2600 ft 177 kts 236°
2026-04-20 17:04 53.58640 9.98320 2385 ft 172 kts 236°
2026-04-20 17:04 53.57983 9.96612 2057 ft 176 kts 235°
2026-04-20 17:04 53.57284 9.94968 1873 ft 164 kts 236°
2026-04-20 17:04 53.56754 9.93383 1957 ft 143 kts 279°
2026-04-20 17:05 53.57155 9.92050 1957 ft 129 kts 329°
2026-04-20 17:05 53.57891 9.91081 1780 ft 133 kts 333°
2026-04-20 17:05 53.58666 9.90490 1761 ft 109 kts 25°
2026-04-20 17:05 53.59290 9.91162 1523 ft 106 kts 52°
2026-04-20 17:06 53.59755 9.92179 1061 ft 108 kts 53°
2026-04-20 17:06 53.60203 9.93159 940 ft 103 kts 51°
2026-04-20 17:06 53.60699 9.94115 584 ft 109 kts 46°
2026-04-20 17:06 53.61116 9.94964 445 ft 71 kts 48°
2026-04-20 17:07 53.61403 9.95539 250 ft 69 kts 46°
2026-04-20 17:07 53.61741 9.96262 152 ft 86 kts 45°
2026-04-20 17:07 53.62094 9.96940 35 ft 66 kts 49°
2026-04-20 17:07 53.62305 9.97339 34 ft 30 kts 51°
2026-04-20 17:08 53.62438 9.97605 34 ft 31 kts 51°
2026-04-20 17:08 53.62457 9.97814 36 ft 16 kts 148°
2026-04-20 17:08 53.62431 9.97912 40 ft 0 kts 82°
2026-04-20 17:08 53.62453 9.98035 41 ft 30 kts 63°
2026-04-20 17:09 53.62595 9.98357 41 ft 35 kts 50°
2026-04-20 17:09 53.62717 9.98648 41 ft 18 kts 105°
2026-04-20 17:09 53.62671 9.98752 41 ft 0 kts 64°